SCP
0 0 0 0 0 0 0 0 0 0 0 0 0 0 0 0 0 0 0 0 0 0 0 0 0 0 0 0 0 0 0 0 1 1 1 1 1 1 1 1 2 2 2
0 0 0 0 0 0 0 0 0 0 0 0 0 0 0 0 0 0 0 0 0 0 0 0 0 0 0 0 0 0 0 0 1 1 1 1 1 1 1 1 2 2 2
0 0 0 0 0 0 0 0 0 0 0 0 0 0 0 0 0 0 0 0 0 0 0 0 0 0 0 0 0 0 0 0 0 1 1 1 1 1 1 1 2 2 2
0 0 0 0 0 0 0 0 0 0 0 0 0 0 0 -0 0 0 0 0 0 0 0 0 0 0 0 0 0 0 0 0 0 1 1 1 1 1 1 1 2 2 2
0 0 0 0 0 0 0 0 0 0 0 0 0 0 0 0 0 0 0 0 0 0 0 0 0 0 0 0 0 0 0 0 0 0 1 1 1 1 1 1 2 2 2
0 0 0 0 0 0 0 0 0 0 0 0 0 0 0 0 0 0 0 0 0 0 0 0 0 0 0 0 0 0 0 0 0 0 1 1 1 1 1 1 2 2 2
0 0 0 0 0 0 0 0 0 0 0 0 0 0 0 0 0 0 0 0 0 0 0 0 0 0 0 0 0 0 0 0 0 0 1 1 1 1 1 1 2 2 2
0 0 0 0 0 0 0 0 0 0 0 0 0 0 0 0 0 0 0 0 0 0 0 0 0 0 0 0 0 0 0 0 0 0 1 1 1 1 1 1 2 2 2
0 0 0 0 0 0 0 0 0 0 0 0 0 0 0 0 0 0 0 0 0 0 0 0 0 0 0 0 0 0 0 0 0 0 0 1 1 1 2 2 2 2 2
0 0 0 0 0 0 0 0 0 0 0 0 0 0 0 0 0 0 0 0 0 0 0 0 0 0 0 0 0 0 0 0 0 0 0 1 1 1 2 2 2 2 2
0 0 0 0 0 0 0 0 0 0 0 0 0 0 0 0 0 0 0 0 0 0 0 0 0 0 0 0 0 0 0 0 0 0 0 0 1 1 2 2 2 2 2
0 0 0 0 0 0 0 0 0 0 0 0 0 0 0 0 0 0 0 0 0 0 0 0 0 0 0 0 0 0 0 0 0 0 0 0 0 1 1 2 2 2 2
0 0 0 0 0 0 0 0 0 0 0 0 0 0 0 0 0 0 0 0 0 0 0 0 0 0 0 0 0 0 0 0 0 0 0 0 0 0 1 1 1 2 2
0 0 0 0 0 0 0 0 0 0 0 0 0 0 0 0 0 0 0 0 0 0 0 0 0 0 0 0 0 0 0 0 0 0 0 0 0 0 0 0 1 1 1
0 0 0 0 0 0 0 0 0 0 0 0 0 0 0 0 0 0 0 0 0 0 0 0 0 0 0 0 0 0 0 0 0 0 0 0 0 0 0 0 0 1 1
0 0 0 0 0 0 0 0 0 0 0 0 0 0 0 0 0 0 0 0 0 0 0 0 0 0 0 0 0 0 0 0 0 0 0 0 0 0 0 0 0 0 0
0 0 0 0 0 0 0 0 0 0 0 0 0 0 0 0 0 0 0 0 0 0 0 0 0 0 0 0 0 0 0 0 0 0 0 0 0 0 0 0 0 0 0
0 0 0 0 0 0 0 0 0 0 0 -0 -0 -0 -0 0 0 -0 -0 0 0 0 0 0 0 0 0 0 0 0 0 0 0 0 0 0 0 0 0 0 0 0 0
0 0 0 0 0 0 0 0 0 0 0 -0 -0 -0 -0 0 0 0 -0 0 0 0 0 0 0 0 0 0 0 0 0 0 0 0 0 0 0 0 0 0 0 0 0
0 0 0 0 0 0 0 0 0 0 0 0 -0 -0 -0 0 0 0 -0 -0 0 0 0 0 0 0 0 0 0 0 0 0 0 0 0 0 0 0 0 0 0 0 0
0 0 0 0 0 0 0 0 0 0 0 0 0 -0 0 0 0 0 -0 0 0 0 0 0 0 0 0 0 0 0 0 0 0 0 0 0 0 0 0 0 0 0 0
0 0 0 0 0 0 0 0 0 0 0 0 0 0 0 0 0 0 0 0 0 0 0 0 0 0 0 0 0 0 0 0 0 0 0 0 0 0 0 0 0 0 0
0 0 0 0 0 0 0 0 0 0 0 0 0 0 0 0 0 0 0 0 0 0 0 0 0 0 0 0 0 0 0 0 0 0 0 0 0 0 0 0 0 0 0
0 0 0 0 0 0 0 0 0 0 0 0 0 0 0 0 0 0 0 0 0 0 0 0 0 0 0 0 0 0 0 0 0 0 0 0 0 0 0 0 0 0 0
0 0 0 0 0 0 0 0 0 0 0 0 0 0 0 0 0 0 0 0 0 0 0 0 0 0 0 0 0 0 0 0 0 0 0 0 0 0 0 0 0 0 0
0 0 0 0 0 0 0 0 0 0 0 0 0 0 0 0 0 0 0 0 0 0 0 0 0 0 0 0 0 0 0 0 0 0 0 0 0 0 0 0 0 0 0
Wind_Speed
10 11 10 10 12 11 12 13 13 16 16 16 15 17 17 17 16 15 12 21 25 26 26 25 25 25 25 25 24 25 25 24 23 24 25 27 27 27 27 27 26 25 24
10 11 11 11 11 11 12 13 15 15 14 14 16 17 18 18 16 17 15 16 23 24 24 24 24 24 24 24 24 24 25 25 25 23 25 27 28 28 28 28 27 26 25
12 12 11 11 11 12 14 13 15 13 13 15 17 18 16 17 17 18 17 14 14 19 21 22 22 22 22 23 23 24 25 25 25 24 24 26 28 28 28 28 28 27 26
13 12 11 11 12 12 12 12 13 13 14 14 15 14 15 15 18 18 16 15 13 12 14 18 18 19 20 22 23 23 24 24 25 25 24 25 27 29 29 29 29 29 28
13 12 11 11 13 12 12 12 12 13 15 15 15 15 15 15 17 17 17 16 14 12 11 12 15 17 18 20 21 22 22 23 24 25 25 25 26 29 30 30 29 29 29
13 12 10 13 13 12 12 13 16 15 14 15 15 16 15 17 16 15 15 12 11 11 10 10 10 11 16 18 20 21 22 23 23 24 25 25 26 28 30 31 30 30 30
13 12 11 12 12 12 14 16 15 17 15 14 15 16 16 17 16 11 9 9 10 10 10 11 10 10 9 15 18 19 21 22 23 23 24 24 25 27 30 31 31 31 30
13 11 13 12 13 13 15 16 16 14 14 13 13 15 14 14 7 9 10 10 10 9 10 11 11 12 11 9 12 17 20 22 23 24 23 22 23 27 30 31 31 31 31
13 13 14 14 14 14 13 16 17 17 15 14 12 11 10 11 14 11 13 10 9 9 10 10 12 12 12 11 11 14 17 19 22 23 23 22 22 24 29 31 31 31 31
13 13 14 15 15 13 15 16 16 15 16 14 12 11 11 12 11 11 10 11 13 13 12 10 11 12 12 10 11 15 17 19 21 22 22 21 21 23 26 31 32 31 31
12 13 14 14 15 13 15 17 17 16 13 13 13 12 13 12 13 13 14 13 11 11 11 11 10 10 11 10 9 12 15 17 19 20 20 19 18 20 23 27 32 32 30
10 13 14 14 14 14 15 16 16 16 13 14 12 11 11 11 11 11 12 13 13 12 12 11 10 9 9 9 11 13 15 17 18 18 17 17 16 15 17 22 27 31 31
11 14 15 15 14 15 16 15 14 14 13 13 12 11 10 11 11 11 12 13 14 12 13 11 9 8 8 8 8 13 15 17 18 18 16 14 13 12 12 15 20 28 32
11 15 15 15 16 16 15 15 12 12 11 12 12 12 10 10 10 10 10 11 12 12 12 12 8 8 6 7 10 15 13 16 16 17 16 14 11 10 9 10 11 19 26
11 14 15 15 15 15 15 15 11 12 12 11 11 11 10 9 9 9 9 9 10 12 12 12 9 9 8 8 11 11 12 15 16 17 17 14 12 9 8 8 8 12 17
13 14 15 15 15 15 15 14 13 13 13 11 9 11 10 9 8 8 8 8 8 10 12 11 11 12 12 10 13 13 12 17 18 18 17 15 12 9 7 7 9 11 13
13 14 14 14 15 15 15 14 14 14 14 13 13 13 12 12 9 8 8 8 8 9 11 12 11 12 14 13 11 11 11 11 10 15 16 16 13 9 8 8 10 12 14
13 13 14 14 14 14 14 14 13 13 13 13 14 14 14 12 14 10 9 10 9 9 10 13 12 11 13 13 12 12 10 9 9 12 15 15 13 10 9 8 10 13 16
13 13 13 14 13 13 13 12 11 11 12 12 13 13 14 15 15 12 12 11 10 10 10 11 12 10 9 9 11 10 11 9 9 10 12 13 13 11 9 9 11 14 17
12 13 13 14 13 13 12 11 9 9 10 11 12 13 13 14 15 15 12 13 12 12 11 10 10 9 8 9 8 7 7 6 7 7 9 9 10 10 9 10 12 14 18
11 12 13 14 14 12 11 11 6 8 9 11 12 12 13 17 20 16 12 13 13 11 10 9 9 9 8 8 7 6 7 7 7 5 5 6 7 6 6 8 11 13 18
11 12 12 13 14 11 19 20 10 8 9 10 12 13 14 15 20 19 19 18 16 13 12 10 9 9 10 10 9 8 7 6 4 2 4 5 5 5 4 4 8 13 17
11 12 12 13 14 15 21 21 16 10 10 10 11 12 12 13 18 13 15 17 15 16 15 11 11 10 11 11 11 10 8 7 6 6 4 4 5 5 3 3 7 12 16
11 11 12 13 14 15 21 22 19 11 9 10 10 12 14 15 16 17 14 13 12 11 12 9 9 10 10 11 10 10 10 10 9 7 5 3 3 4 3 2 5 11 14
11 11 12 13 13 15 20 23 20 10 8 10 10 11 13 15 21 23 15 14 14 12 12 15 15 13 14 14 11 7 7 6 4 2 1 2 1 2 2 2 3 8 12
11 11 12 12 13 14 19 22 22 8 7 8 9 10 14 18 22 22 15 14 15 14 13 12 11 11 9 9 11 6 6 5 5 3 5 4 1 1 2 1 1 4 7
Wind_Direction
331 329 325 324 322 321 321 320 317 317 314 312 309 307 305 303 299 294 291 291 292 292 291 290 288 286 284 282 281 278 277 274 266 253 238 229 222 214 207 201 197 196 194
328 324 321 320 318 320 319 315 313 312 310 309 307 305 303 299 294 293 290 289 287 286 286 286 285 283 281 279 278 276 273 272 266 258 246 232 224 218 210 204 199 197 196
328 325 320 319 319 319 316 312 311 309 309 308 305 304 301 297 294 291 289 285 283 281 280 281 281 282 281 281 280 277 272 269 267 260 253 238 226 219 214 207 201 198 197
332 327 321 319 320 318 314 312 311 311 310 308 305 304 300 295 291 289 286 280 277 275 277 276 279 283 283 282 281 279 274 268 265 261 255 245 231 220 215 210 204 200 198
333 328 321 318 320 316 313 311 311 310 308 307 304 302 298 295 291 285 279 276 271 270 272 275 281 283 283 282 282 282 281 275 268 262 256 249 236 224 216 211 206 203 200
331 327 319 320 319 314 313 313 311 308 305 304 303 300 298 293 281 273 272 270 269 270 274 284 287 282 279 281 281 282 283 282 274 266 258 252 241 228 218 212 208 205 202
329 324 320 318 317 313 312 309 308 307 306 305 304 304 301 289 275 269 272 277 277 278 281 285 285 286 285 280 280 281 280 282 283 274 263 254 244 232 220 213 209 206 203
325 320 318 316 314 312 309 308 308 304 302 304 306 307 308 305 285 323 300 283 282 288 288 286 286 284 283 282 278 280 281 280 280 279 271 259 249 236 223 214 211 208 205
320 317 316 315 312 311 307 308 307 303 302 301 295 295 298 304 326 298 292 287 295 299 292 289 285 284 283 278 278 275 277 280 280 279 274 264 252 241 226 216 212 209 206
319 318 317 316 313 310 308 307 305 300 297 294 293 286 278 284 289 298 297 301 298 291 289 289 289 285 279 275 271 275 279 281 279 277 274 267 256 244 231 218 212 210 206
320 321 322 320 317 315 312 309 306 300 294 289 289 289 285 282 270 272 285 292 293 292 290 290 286 282 282 276 275 276 286 289 285 280 277 271 265 251 237 223 212 209 207
322 325 327 323 322 319 316 313 309 303 296 289 287 284 282 280 280 279 285 292 294 295 293 288 282 279 279 279 280 291 296 293 290 285 282 279 271 266 252 233 216 208 207
324 327 328 326 325 322 320 319 314 310 303 295 288 283 278 273 274 274 276 284 289 292 290 284 279 281 280 281 284 297 294 290 290 289 283 281 277 273 268 252 227 212 207
321 322 324 323 325 325 325 326 319 319 312 303 293 287 280 275 272 270 273 281 288 292 291 292 292 288 290 292 289 298 287 284 286 288 284 279 272 274 273 266 242 218 209
319 321 322 325 327 328 329 329 325 327 320 311 303 298 290 284 279 276 274 276 284 294 298 302 304 301 301 294 290 286 282 281 284 285 280 274 264 264 275 263 247 222 211
320 321 324 326 328 330 330 330 328 336 333 329 321 314 308 304 301 296 292 287 284 286 290 296 300 298 300 292 287 283 278 279 275 273 272 265 254 247 260 262 237 217 205
320 322 324 326 327 329 329 327 331 334 335 336 337 334 329 321 320 315 308 304 298 294 293 297 299 301 301 297 290 281 274 266 261 258 260 257 248 236 243 256 237 212 196
321 321 323 324 326 327 326 325 331 333 335 335 336 336 335 333 332 327 323 318 313 307 300 300 301 303 303 301 297 287 275 262 255 251 249 250 243 232 233 246 240 212 192
321 322 323 323 323 324 323 321 328 330 333 333 333 333 332 332 332 333 330 328 321 315 306 300 302 305 305 308 305 291 277 262 256 247 241 242 237 230 229 239 240 212 191
321 322 320 319 319 318 318 313 315 326 331 333 333 331 329 329 330 332 332 332 328 320 313 307 306 311 313 318 311 304 292 280 264 250 235 229 223 226 226 234 234 212 193
319 319 318 317 317 317 314 314 300 320 331 335 334 332 329 332 333 335 336 334 331 325 320 317 314 316 323 327 323 313 304 297 269 248 236 219 210 211 215 231 233 209 195
317 317 314 312 315 315 318 327 330 321 333 337 336 334 330 332 333 336 335 336 335 329 327 323 317 318 320 321 320 316 313 305 276 301 271 226 203 203 206 217 219 199 190
313 313 311 312 312 314 319 323 326 322 326 331 333 334 334 333 337 332 336 337 330 330 330 327 315 316 315 319 317 315 315 309 297 316 300 240 205 201 197 223 210 191 185
312 308 308 311 314 314 319 321 321 315 315 323 329 332 333 334 334 344 341 334 329 329 328 322 313 312 312 313 312 307 302 296 281 266 253 248 200 189 175 190 207 192 181
309 306 308 312 314 314 318 318 319 309 312 320 326 332 335 335 340 349 345 336 333 334 335 330 326 322 323 322 326 318 312 300 286 282 282 268 210 163 154 177 201 190 178
308 310 312 314 314 311 313 316 319 311 314 322 330 335 336 341 346 350 347 341 338 339 336 331 329 328 328 325 333 328 313 303 301 314 356 338 322 133 126 88 188 178 172